Index of /20260504/WXO-DD/model_caps/3km/00/039
Name Last modified Size Description
Parent Directory -
20260504T00Z_MSC_CAPS_AbsoluteVorticity_IsbL-0250_RLatLon0.03_PT039H.grib2 2026-05-04 06:20 1.2M
20260504T00Z_MSC_CAPS_AbsoluteVorticity_IsbL-0500_RLatLon0.03_PT039H.grib2 2026-05-04 06:20 1.1M
20260504T00Z_MSC_CAPS_AbsoluteVorticity_IsbL-0700_RLatLon0.03_PT039H.grib2 2026-05-04 06:20 1.1M
20260504T00Z_MSC_CAPS_AbsoluteVorticity_IsbL-0850_RLatLon0.03_PT039H.grib2 2026-05-04 06:20 1.3M
20260504T00Z_MSC_CAPS_AbsoluteVorticity_IsbL-1000_RLatLon0.03_PT039H.grib2 2026-05-04 06:20 1.4M
20260504T00Z_MSC_CAPS_AirDensity_AGL-120m_RLatLon0.03_PT039H.grib2 2026-05-04 06:20 1.4M
20260504T00Z_MSC_CAPS_AirDensity_AGL-40m_RLatLon0.03_PT039H.grib2 2026-05-04 06:20 1.4M
20260504T00Z_MSC_CAPS_AirDensity_AGL-80m_RLatLon0.03_PT039H.grib2 2026-05-04 06:20 1.4M
20260504T00Z_MSC_CAPS_AirTemp_AGL-120m_RLatLon0.03_PT039H.grib2 2026-05-04 06:20 1.4M
20260504T00Z_MSC_CAPS_AirTemp_AGL-2m_RLatLon0.03_PT039H.grib2 2026-05-04 06:20 1.7M
20260504T00Z_MSC_CAPS_AirTemp_AGL-40m_RLatLon0.03_PT039H.grib2 2026-05-04 06:20 1.5M
20260504T00Z_MSC_CAPS_AirTemp_AGL-80m_RLatLon0.03_PT039H.grib2 2026-05-04 06:20 1.5M
20260504T00Z_MSC_CAPS_AirTemp_IsbL-0050_RLatLon0.03_PT039H.grib2 2026-05-04 06:20 690K
20260504T00Z_MSC_CAPS_AirTemp_IsbL-0100_RLatLon0.03_PT039H.grib2 2026-05-04 06:20 953K
20260504T00Z_MSC_CAPS_AirTemp_IsbL-0150_RLatLon0.03_PT039H.grib2 2026-05-04 06:20 744K
20260504T00Z_MSC_CAPS_AirTemp_IsbL-0175_RLatLon0.03_PT039H.grib2 2026-05-04 06:20 773K
20260504T00Z_MSC_CAPS_AirTemp_IsbL-0200_RLatLon0.03_PT039H.grib2 2026-05-04 06:20 791K
20260504T00Z_MSC_CAPS_AirTemp_IsbL-0225_RLatLon0.03_PT039H.grib2 2026-05-04 06:20 791K
20260504T00Z_MSC_CAPS_AirTemp_IsbL-0250_RLatLon0.03_PT039H.grib2 2026-05-04 06:20 1.0M
20260504T00Z_MSC_CAPS_AirTemp_IsbL-0275_RLatLon0.03_PT039H.grib2 2026-05-04 06:20 1.0M
20260504T00Z_MSC_CAPS_AirTemp_IsbL-0300_RLatLon0.03_PT039H.grib2 2026-05-04 06:20 1.0M
20260504T00Z_MSC_CAPS_AirTemp_IsbL-0350_RLatLon0.03_PT039H.grib2 2026-05-04 06:20 748K
20260504T00Z_MSC_CAPS_AirTemp_IsbL-0400_RLatLon0.03_PT039H.grib2 2026-05-04 06:20 757K
20260504T00Z_MSC_CAPS_AirTemp_IsbL-0450_RLatLon0.03_PT039H.grib2 2026-05-04 06:20 776K
20260504T00Z_MSC_CAPS_AirTemp_IsbL-0500_RLatLon0.03_PT039H.grib2 2026-05-04 06:20 795K
20260504T00Z_MSC_CAPS_AirTemp_IsbL-0550_RLatLon0.03_PT039H.grib2 2026-05-04 06:20 808K
20260504T00Z_MSC_CAPS_AirTemp_IsbL-0600_RLatLon0.03_PT039H.grib2 2026-05-04 06:20 1.0M
20260504T00Z_MSC_CAPS_AirTemp_IsbL-0650_RLatLon0.03_PT039H.grib2 2026-05-04 06:20 1.0M
20260504T00Z_MSC_CAPS_AirTemp_IsbL-0700_RLatLon0.03_PT039H.grib2 2026-05-04 06:20 1.0M
20260504T00Z_MSC_CAPS_AirTemp_IsbL-0750_RLatLon0.03_PT039H.grib2 2026-05-04 06:20 1.0M
20260504T00Z_MSC_CAPS_AirTemp_IsbL-0800_RLatLon0.03_PT039H.grib2 2026-05-04 06:20 1.1M
20260504T00Z_MSC_CAPS_AirTemp_IsbL-0850_RLatLon0.03_PT039H.grib2 2026-05-04 06:20 1.1M
20260504T00Z_MSC_CAPS_AirTemp_IsbL-0875_RLatLon0.03_PT039H.grib2 2026-05-04 06:20 1.1M
20260504T00Z_MSC_CAPS_AirTemp_IsbL-0900_RLatLon0.03_PT039H.grib2 2026-05-04 06:20 1.1M
20260504T00Z_MSC_CAPS_AirTemp_IsbL-0925_RLatLon0.03_PT039H.grib2 2026-05-04 06:20 1.2M
20260504T00Z_MSC_CAPS_AirTemp_IsbL-0950_RLatLon0.03_PT039H.grib2 2026-05-04 06:20 1.1M
20260504T00Z_MSC_CAPS_AirTemp_IsbL-0970_RLatLon0.03_PT039H.grib2 2026-05-04 06:20 1.1M
20260504T00Z_MSC_CAPS_AirTemp_IsbL-0985_RLatLon0.03_PT039H.grib2 2026-05-04 06:20 1.1M
20260504T00Z_MSC_CAPS_AirTemp_IsbL-1000_RLatLon0.03_PT039H.grib2 2026-05-04 06:20 1.0M
20260504T00Z_MSC_CAPS_AirTemp_IsbL-1015_RLatLon0.03_PT039H.grib2 2026-05-04 06:20 1.1M
20260504T00Z_MSC_CAPS_Albedo_Sfc_RLatLon0.03_PT039H.grib2 2026-05-04 06:20 2.7M
20260504T00Z_MSC_CAPS_CAPE_Sfc_RLatLon0.03_PT039H.grib2 2026-05-04 06:20 212K
20260504T00Z_MSC_CAPS_CloudWater_EAtm_RLatLon0.03_PT039H.grib2 2026-05-04 06:20 1.6M
20260504T00Z_MSC_CAPS_ConvectivePrecip-Accum_Sfc_RLatLon0.03_PT039H.grib2 2026-05-04 06:20 4.9M
20260504T00Z_MSC_CAPS_DewPointDepression_AGL-120m_RLatLon0.03_PT039H.grib2 2026-05-04 06:20 2.1M
20260504T00Z_MSC_CAPS_DewPointDepression_AGL-2m_RLatLon0.03_PT039H.grib2 2026-05-04 06:20 2.2M
20260504T00Z_MSC_CAPS_DewPointDepression_AGL-40m_RLatLon0.03_PT039H.grib2 2026-05-04 06:20 2.2M
20260504T00Z_MSC_CAPS_DewPointDepression_AGL-80m_RLatLon0.03_PT039H.grib2 2026-05-04 06:20 2.2M
20260504T00Z_MSC_CAPS_DewPointDepression_IsbL-0050_RLatLon0.03_PT039H.grib2 2026-05-04 06:20 1.2K
20260504T00Z_MSC_CAPS_DewPointDepression_IsbL-0100_RLatLon0.03_PT039H.grib2 2026-05-04 06:20 63K
20260504T00Z_MSC_CAPS_DewPointDepression_IsbL-0150_RLatLon0.03_PT039H.grib2 2026-05-04 06:20 70K
20260504T00Z_MSC_CAPS_DewPointDepression_IsbL-0175_RLatLon0.03_PT039H.grib2 2026-05-04 06:20 220K
20260504T00Z_MSC_CAPS_DewPointDepression_IsbL-0200_RLatLon0.03_PT039H.grib2 2026-05-04 06:20 393K
20260504T00Z_MSC_CAPS_DewPointDepression_IsbL-0225_RLatLon0.03_PT039H.grib2 2026-05-04 06:20 636K
20260504T00Z_MSC_CAPS_DewPointDepression_IsbL-0250_RLatLon0.03_PT039H.grib2 2026-05-04 06:20 877K
20260504T00Z_MSC_CAPS_DewPointDepression_IsbL-0275_RLatLon0.03_PT039H.grib2 2026-05-04 06:20 1.0M
20260504T00Z_MSC_CAPS_DewPointDepression_IsbL-0300_RLatLon0.03_PT039H.grib2 2026-05-04 06:20 1.1M
20260504T00Z_MSC_CAPS_DewPointDepression_IsbL-0350_RLatLon0.03_PT039H.grib2 2026-05-04 06:20 1.1M
20260504T00Z_MSC_CAPS_DewPointDepression_IsbL-0400_RLatLon0.03_PT039H.grib2 2026-05-04 06:20 1.1M
20260504T00Z_MSC_CAPS_DewPointDepression_IsbL-0450_RLatLon0.03_PT039H.grib2 2026-05-04 06:20 1.2M
20260504T00Z_MSC_CAPS_DewPointDepression_IsbL-0500_RLatLon0.03_PT039H.grib2 2026-05-04 06:20 1.2M
20260504T00Z_MSC_CAPS_DewPointDepression_IsbL-0550_RLatLon0.03_PT039H.grib2 2026-05-04 06:20 1.3M
20260504T00Z_MSC_CAPS_DewPointDepression_IsbL-0600_RLatLon0.03_PT039H.grib2 2026-05-04 06:20 1.3M
20260504T00Z_MSC_CAPS_DewPointDepression_IsbL-0650_RLatLon0.03_PT039H.grib2 2026-05-04 06:20 1.3M
20260504T00Z_MSC_CAPS_DewPointDepression_IsbL-0700_RLatLon0.03_PT039H.grib2 2026-05-04 06:20 1.3M
20260504T00Z_MSC_CAPS_DewPointDepression_IsbL-0750_RLatLon0.03_PT039H.grib2 2026-05-04 06:20 1.3M
20260504T00Z_MSC_CAPS_DewPointDepression_IsbL-0800_RLatLon0.03_PT039H.grib2 2026-05-04 06:20 1.3M
20260504T00Z_MSC_CAPS_DewPointDepression_IsbL-0850_RLatLon0.03_PT039H.grib2 2026-05-04 06:20 1.3M
20260504T00Z_MSC_CAPS_DewPointDepression_IsbL-0875_RLatLon0.03_PT039H.grib2 2026-05-04 06:20 1.3M
20260504T00Z_MSC_CAPS_DewPointDepression_IsbL-0900_RLatLon0.03_PT039H.grib2 2026-05-04 06:20 1.4M
20260504T00Z_MSC_CAPS_DewPointDepression_IsbL-0925_RLatLon0.03_PT039H.grib2 2026-05-04 06:20 1.4M
20260504T00Z_MSC_CAPS_DewPointDepression_IsbL-0950_RLatLon0.03_PT039H.grib2 2026-05-04 06:20 1.4M
20260504T00Z_MSC_CAPS_DewPointDepression_IsbL-0970_RLatLon0.03_PT039H.grib2 2026-05-04 06:20 1.4M
20260504T00Z_MSC_CAPS_DewPointDepression_IsbL-0985_RLatLon0.03_PT039H.grib2 2026-05-04 06:20 1.4M
20260504T00Z_MSC_CAPS_DewPointDepression_IsbL-1000_RLatLon0.03_PT039H.grib2 2026-05-04 06:20 1.4M
20260504T00Z_MSC_CAPS_DewPointDepression_IsbL-1015_RLatLon0.03_PT039H.grib2 2026-05-04 06:20 1.3M
20260504T00Z_MSC_CAPS_DewPoint_AGL-120m_RLatLon0.03_PT039H.grib2 2026-05-04 06:20 3.7M
20260504T00Z_MSC_CAPS_DewPoint_AGL-2m_RLatLon0.03_PT039H.grib2 2026-05-04 06:20 2.1M
20260504T00Z_MSC_CAPS_DewPoint_AGL-40m_RLatLon0.03_PT039H.grib2 2026-05-04 06:20 3.8M
20260504T00Z_MSC_CAPS_DewPoint_AGL-80m_RLatLon0.03_PT039H.grib2 2026-05-04 06:20 3.7M
20260504T00Z_MSC_CAPS_DownwardLongwaveRadiationFlux-Accum_Sfc_RLatLon0.03_PT039H.grib2 2026-05-04 06:20 2.1M
20260504T00Z_MSC_CAPS_DownwardShortwaveRadiationFlux-Accum_NTAtm_RLatLon0.03_PT039H.grib2 2026-05-04 06:20 493K
20260504T00Z_MSC_CAPS_DownwardShortwaveRadiationFlux-Accum_Sfc_RLatLon0.03_PT039H.grib2 2026-05-04 06:20 2.9M
20260504T00Z_MSC_CAPS_FreezingRain-Accum_Sfc_RLatLon0.03_PT039H.grib2 2026-05-04 06:20 881K
20260504T00Z_MSC_CAPS_GeopotentialHeight_IsbL-0050_RLatLon0.03_PT039H.grib2 2026-05-04 06:20 629K
20260504T00Z_MSC_CAPS_GeopotentialHeight_IsbL-0100_RLatLon0.03_PT039H.grib2 2026-05-04 06:20 826K
20260504T00Z_MSC_CAPS_GeopotentialHeight_IsbL-0150_RLatLon0.03_PT039H.grib2 2026-05-04 06:20 610K
20260504T00Z_MSC_CAPS_GeopotentialHeight_IsbL-0175_RLatLon0.03_PT039H.grib2 2026-05-04 06:20 725K
20260504T00Z_MSC_CAPS_GeopotentialHeight_IsbL-0200_RLatLon0.03_PT039H.grib2 2026-05-04 06:20 743K
20260504T00Z_MSC_CAPS_GeopotentialHeight_IsbL-0225_RLatLon0.03_PT039H.grib2 2026-05-04 06:20 758K
20260504T00Z_MSC_CAPS_GeopotentialHeight_IsbL-0250_RLatLon0.03_PT039H.grib2 2026-05-04 06:20 768K
20260504T00Z_MSC_CAPS_GeopotentialHeight_IsbL-0275_RLatLon0.03_PT039H.grib2 2026-05-04 06:20 775K
20260504T00Z_MSC_CAPS_GeopotentialHeight_IsbL-0300_RLatLon0.03_PT039H.grib2 2026-05-04 06:20 779K
20260504T00Z_MSC_CAPS_GeopotentialHeight_IsbL-0350_RLatLon0.03_PT039H.grib2 2026-05-04 06:20 783K
20260504T00Z_MSC_CAPS_GeopotentialHeight_IsbL-0400_RLatLon0.03_PT039H.grib2 2026-05-04 06:20 780K
20260504T00Z_MSC_CAPS_GeopotentialHeight_IsbL-0450_RLatLon0.03_PT039H.grib2 2026-05-04 06:20 772K
20260504T00Z_MSC_CAPS_GeopotentialHeight_IsbL-0500_RLatLon0.03_PT039H.grib2 2026-05-04 06:20 764K
20260504T00Z_MSC_CAPS_GeopotentialHeight_IsbL-0550_RLatLon0.03_PT039H.grib2 2026-05-04 06:20 646K
20260504T00Z_MSC_CAPS_GeopotentialHeight_IsbL-0600_RLatLon0.03_PT039H.grib2 2026-05-04 06:20 814K
20260504T00Z_MSC_CAPS_GeopotentialHeight_IsbL-0650_RLatLon0.03_PT039H.grib2 2026-05-04 06:20 813K
20260504T00Z_MSC_CAPS_GeopotentialHeight_IsbL-0700_RLatLon0.03_PT039H.grib2 2026-05-04 06:20 816K
20260504T00Z_MSC_CAPS_GeopotentialHeight_IsbL-0750_RLatLon0.03_PT039H.grib2 2026-05-04 06:20 897K
20260504T00Z_MSC_CAPS_GeopotentialHeight_IsbL-0800_RLatLon0.03_PT039H.grib2 2026-05-04 06:20 828K
20260504T00Z_MSC_CAPS_GeopotentialHeight_IsbL-0850_RLatLon0.03_PT039H.grib2 2026-05-04 06:20 839K
20260504T00Z_MSC_CAPS_GeopotentialHeight_IsbL-0875_RLatLon0.03_PT039H.grib2 2026-05-04 06:20 829K
20260504T00Z_MSC_CAPS_GeopotentialHeight_IsbL-0900_RLatLon0.03_PT039H.grib2 2026-05-04 06:20 852K
20260504T00Z_MSC_CAPS_GeopotentialHeight_IsbL-0925_RLatLon0.03_PT039H.grib2 2026-05-04 06:20 845K
20260504T00Z_MSC_CAPS_GeopotentialHeight_IsbL-0950_RLatLon0.03_PT039H.grib2 2026-05-04 06:20 863K
20260504T00Z_MSC_CAPS_GeopotentialHeight_IsbL-0970_RLatLon0.03_PT039H.grib2 2026-05-04 06:20 685K
20260504T00Z_MSC_CAPS_GeopotentialHeight_IsbL-0985_RLatLon0.03_PT039H.grib2 2026-05-04 06:20 691K
20260504T00Z_MSC_CAPS_GeopotentialHeight_IsbL-1000_RLatLon0.03_PT039H.grib2 2026-05-04 06:20 696K
20260504T00Z_MSC_CAPS_GeopotentialHeight_IsbL-1015_RLatLon0.03_PT039H.grib2 2026-05-04 06:20 703K
20260504T00Z_MSC_CAPS_GeopotentialHeight_Sfc_RLatLon0.03_PT039H.grib2 2026-05-04 06:20 1.0M
20260504T00Z_MSC_CAPS_IcePellets-Accum_Sfc_RLatLon0.03_PT039H.grib2 2026-05-04 06:20 115K
20260504T00Z_MSC_CAPS_LatentHeatNetFlux_Sfc_RLatLon0.03_PT039H.grib2 2026-05-04 06:20 1.9M
20260504T00Z_MSC_CAPS_LiftedIndex-MU-VT_IsbL-0500_RLatLon0.03_PT039H.grib2 2026-05-04 06:20 3.3M
20260504T00Z_MSC_CAPS_MixedLayerThickness_Sfc_RLatLon0.03_PT039H.nc 2026-05-04 06:12 16M
20260504T00Z_MSC_CAPS_NetLongwaveRadiationFlux-Accum_Sfc_RLatLon0.03_PT039H.grib2 2026-05-04 06:20 2.8M
20260504T00Z_MSC_CAPS_NetShortwaveRadiationFlux-Accum_Sfc_RLatLon0.03_PT039H.grib2 2026-05-04 06:20 2.8M
20260504T00Z_MSC_CAPS_PlanetaryBoundaryLayerHeight_Sfc_RLatLon0.03_PT039H.grib2 2026-05-04 06:20 2.5M
20260504T00Z_MSC_CAPS_Precip-Accum_Sfc_RLatLon0.03_PT039H.grib2 2026-05-04 06:20 5.5M
20260504T00Z_MSC_CAPS_PrecipRate_Sfc_RLatLon0.03_PT039H.grib2 2026-05-04 06:20 499K
20260504T00Z_MSC_CAPS_PrecipType-Instant_Sfc_RLatLon0.03_PT039H.grib2 2026-05-04 06:20 2.1M
20260504T00Z_MSC_CAPS_Pressure_MSL_RLatLon0.03_PT039H.grib2 2026-05-04 06:20 930K
20260504T00Z_MSC_CAPS_Pressure_Sfc_RLatLon0.03_PT039H.grib2 2026-05-04 06:20 1.2M
20260504T00Z_MSC_CAPS_RadiativeTemp_Sfc_RLatLon0.03_PT039H.grib2 2026-05-04 06:20 2.1M
20260504T00Z_MSC_CAPS_Rain-Accum_Sfc_RLatLon0.03_PT039H.grib2 2026-05-04 06:20 2.7M
20260504T00Z_MSC_CAPS_RelativeHumidity_AGL-120m_RLatLon0.03_PT039H.grib2 2026-05-04 06:20 2.9M
20260504T00Z_MSC_CAPS_RelativeHumidity_AGL-2m_RLatLon0.03_PT039H.grib2 2026-05-04 06:20 2.9M
20260504T00Z_MSC_CAPS_RelativeHumidity_AGL-40m_RLatLon0.03_PT039H.grib2 2026-05-04 06:20 2.9M
20260504T00Z_MSC_CAPS_RelativeHumidity_AGL-80m_RLatLon0.03_PT039H.grib2 2026-05-04 06:20 2.9M
20260504T00Z_MSC_CAPS_RelativeHumidity_IsbL-0050_RLatLon0.03_PT039H.grib2 2026-05-04 06:20 1.0M
20260504T00Z_MSC_CAPS_RelativeHumidity_IsbL-0100_RLatLon0.03_PT039H.grib2 2026-05-04 06:20 881K
20260504T00Z_MSC_CAPS_RelativeHumidity_IsbL-0150_RLatLon0.03_PT039H.grib2 2026-05-04 06:20 610K
20260504T00Z_MSC_CAPS_RelativeHumidity_IsbL-0175_RLatLon0.03_PT039H.grib2 2026-05-04 06:20 647K
20260504T00Z_MSC_CAPS_RelativeHumidity_IsbL-0200_RLatLon0.03_PT039H.grib2 2026-05-04 06:20 680K
20260504T00Z_MSC_CAPS_RelativeHumidity_IsbL-0225_RLatLon0.03_PT039H.grib2 2026-05-04 06:20 889K
20260504T00Z_MSC_CAPS_RelativeHumidity_IsbL-0250_RLatLon0.03_PT039H.grib2 2026-05-04 06:20 1.1M
20260504T00Z_MSC_CAPS_RelativeHumidity_IsbL-0275_RLatLon0.03_PT039H.grib2 2026-05-04 06:20 1.4M
20260504T00Z_MSC_CAPS_RelativeHumidity_IsbL-0300_RLatLon0.03_PT039H.grib2 2026-05-04 06:20 1.5M
20260504T00Z_MSC_CAPS_RelativeHumidity_IsbL-0350_RLatLon0.03_PT039H.grib2 2026-05-04 06:20 2.0M
20260504T00Z_MSC_CAPS_RelativeHumidity_IsbL-0400_RLatLon0.03_PT039H.grib2 2026-05-04 06:20 2.1M
20260504T00Z_MSC_CAPS_RelativeHumidity_IsbL-0450_RLatLon0.03_PT039H.grib2 2026-05-04 06:20 2.0M
20260504T00Z_MSC_CAPS_RelativeHumidity_IsbL-0500_RLatLon0.03_PT039H.grib2 2026-05-04 06:20 2.2M
20260504T00Z_MSC_CAPS_RelativeHumidity_IsbL-0550_RLatLon0.03_PT039H.grib2 2026-05-04 06:20 2.2M
20260504T00Z_MSC_CAPS_RelativeHumidity_IsbL-0600_RLatLon0.03_PT039H.grib2 2026-05-04 06:20 2.2M
20260504T00Z_MSC_CAPS_RelativeHumidity_IsbL-0650_RLatLon0.03_PT039H.grib2 2026-05-04 06:20 2.3M
20260504T00Z_MSC_CAPS_RelativeHumidity_IsbL-0700_RLatLon0.03_PT039H.grib2 2026-05-04 06:20 2.4M
20260504T00Z_MSC_CAPS_RelativeHumidity_IsbL-0750_RLatLon0.03_PT039H.grib2 2026-05-04 06:20 2.4M
20260504T00Z_MSC_CAPS_RelativeHumidity_IsbL-0800_RLatLon0.03_PT039H.grib2 2026-05-04 06:20 2.6M
20260504T00Z_MSC_CAPS_RelativeHumidity_IsbL-0850_RLatLon0.03_PT039H.grib2 2026-05-04 06:20 2.6M
20260504T00Z_MSC_CAPS_RelativeHumidity_IsbL-0875_RLatLon0.03_PT039H.grib2 2026-05-04 06:20 2.6M
20260504T00Z_MSC_CAPS_RelativeHumidity_IsbL-0900_RLatLon0.03_PT039H.grib2 2026-05-04 06:20 2.7M
20260504T00Z_MSC_CAPS_RelativeHumidity_IsbL-0925_RLatLon0.03_PT039H.grib2 2026-05-04 06:20 2.7M
20260504T00Z_MSC_CAPS_RelativeHumidity_IsbL-0950_RLatLon0.03_PT039H.grib2 2026-05-04 06:20 2.8M
20260504T00Z_MSC_CAPS_RelativeHumidity_IsbL-0970_RLatLon0.03_PT039H.grib2 2026-05-04 06:20 2.8M
20260504T00Z_MSC_CAPS_RelativeHumidity_IsbL-0985_RLatLon0.03_PT039H.grib2 2026-05-04 06:20 2.9M
20260504T00Z_MSC_CAPS_RelativeHumidity_IsbL-1000_RLatLon0.03_PT039H.grib2 2026-05-04 06:20 2.9M
20260504T00Z_MSC_CAPS_RelativeHumidity_IsbL-1015_RLatLon0.03_PT039H.grib2 2026-05-04 06:20 3.0M
20260504T00Z_MSC_CAPS_Runoff-Accum_Sfc_RLatLon0.03_PT039H.grib2 2026-05-04 06:20 323K
20260504T00Z_MSC_CAPS_SeaIceAreaFraction_Sfc_RLatLon0.03_PT039H.nc 2026-05-04 06:12 15M
20260504T00Z_MSC_CAPS_SeaIceCompressiveStrength_Sfc_RLatLon0.03_PT039H.nc 2026-05-04 06:12 15M
20260504T00Z_MSC_CAPS_SeaIceDivergence_Sfc_RLatLon0.03_PT039H.nc 2026-05-04 06:12 15M
20260504T00Z_MSC_CAPS_SeaIceInternalPressure_Sfc_RLatLon0.03_PT039H.nc 2026-05-04 06:12 15M
20260504T00Z_MSC_CAPS_SeaIceShear_Sfc_RLatLon0.03_PT039H.nc 2026-05-04 06:12 14M
20260504T00Z_MSC_CAPS_SeaIceSnowTemp_Sfc_RLatLon0.03_PT039H.nc 2026-05-04 06:12 14M
20260504T00Z_MSC_CAPS_SeaIceSnowVolume_Sfc_RLatLon0.03_PT039H.nc 2026-05-04 06:12 15M
20260504T00Z_MSC_CAPS_SeaIceVelocityX_Sfc_RLatLon0.03_PT039H.nc 2026-05-04 06:12 15M
20260504T00Z_MSC_CAPS_SeaIceVelocityY_Sfc_RLatLon0.03_PT039H.nc 2026-05-04 06:12 15M
20260504T00Z_MSC_CAPS_SeaIceVolume_Sfc_RLatLon0.03_PT039H.nc 2026-05-04 06:12 15M
20260504T00Z_MSC_CAPS_SeaSurfaceHeight_Sfc_RLatLon0.03_PT039H.nc 2026-05-04 06:12 16M
20260504T00Z_MSC_CAPS_SeaWaterSalinity_DBS-0.5m_RLatLon0.03_PT039H.nc 2026-05-04 06:12 16M
20260504T00Z_MSC_CAPS_SeaWaterSalinity_DBS-all_RLatLon0.03_PT039H.nc 2026-05-04 06:12 107M
20260504T00Z_MSC_CAPS_SeaWaterTemp_DBS-0.5m_RLatLon0.03_PT039H.nc 2026-05-04 06:12 14M
20260504T00Z_MSC_CAPS_SeaWaterTemp_DBS-all_RLatLon0.03_PT039H.nc 2026-05-04 06:12 88M
20260504T00Z_MSC_CAPS_SeaWaterVelocityX_DBS-0.5m_RLatLon0.03_PT039H.nc 2026-05-04 06:12 17M
20260504T00Z_MSC_CAPS_SeaWaterVelocityX_DBS-all_RLatLon0.03_PT039H.nc 2026-05-04 06:12 209M
20260504T00Z_MSC_CAPS_SeaWaterVelocityY_DBS-0.5m_RLatLon0.03_PT039H.nc 2026-05-04 06:12 18M
20260504T00Z_MSC_CAPS_SeaWaterVelocityY_DBS-all_RLatLon0.03_PT039H.nc 2026-05-04 06:12 215M
20260504T00Z_MSC_CAPS_SensibleHeatNetFlux_Sfc_RLatLon0.03_PT039H.grib2 2026-05-04 06:20 2.2M
20260504T00Z_MSC_CAPS_ShowalterIndex_IsbL-0500_RLatLon0.03_PT039H.grib2 2026-05-04 06:20 4.3M
20260504T00Z_MSC_CAPS_Snow-Accum_Sfc_RLatLon0.03_PT039H.grib2 2026-05-04 06:20 4.3M
20260504T00Z_MSC_CAPS_SnowDensity_Sfc_RLatLon0.03_PT039H.grib2 2026-05-04 06:20 1.3M
20260504T00Z_MSC_CAPS_SnowDepthWaterEquivalent_Sfc_RLatLon0.03_PT039H.grib2 2026-05-04 06:20 662K
20260504T00Z_MSC_CAPS_SnowDepth_Sfc_RLatLon0.03_PT039H.grib2 2026-05-04 06:20 1.1M
20260504T00Z_MSC_CAPS_SoilTemp_DBS-0to10cm_RLatLon0.03_PT039H.grib2 2026-05-04 06:20 1.7M
20260504T00Z_MSC_CAPS_SoilTemp_Sfc_RLatLon0.03_PT039H.grib2 2026-05-04 06:20 1.8M
20260504T00Z_MSC_CAPS_SoilVolumetricIceContent_Sfc_RLatLon0.03_PT039H.grib2 2026-05-04 06:20 1.4M
20260504T00Z_MSC_CAPS_SoilVolumetricWaterContent_DBS-0to10cm_RLatLon0.03_PT039H.grib2 2026-05-04 06:20 1.3M
20260504T00Z_MSC_CAPS_SoilVolumetricWaterContent_DBS-0to1cm_RLatLon0.03_PT039H.grib2 2026-05-04 06:20 1.7M
20260504T00Z_MSC_CAPS_SpecificHumidity_AGL-120m_RLatLon0.03_PT039H.grib2 2026-05-04 06:20 1.5M
20260504T00Z_MSC_CAPS_SpecificHumidity_AGL-2m_RLatLon0.03_PT039H.grib2 2026-05-04 06:20 1.7M
20260504T00Z_MSC_CAPS_SpecificHumidity_AGL-40m_RLatLon0.03_PT039H.grib2 2026-05-04 06:20 1.5M
20260504T00Z_MSC_CAPS_SpecificHumidity_AGL-80m_RLatLon0.03_PT039H.grib2 2026-05-04 06:20 1.5M
20260504T00Z_MSC_CAPS_SpecificHumidity_IsbL-0050_RLatLon0.03_PT039H.grib2 2026-05-04 06:20 939K
20260504T00Z_MSC_CAPS_SpecificHumidity_IsbL-0100_RLatLon0.03_PT039H.grib2 2026-05-04 06:20 1.1M
20260504T00Z_MSC_CAPS_SpecificHumidity_IsbL-0150_RLatLon0.03_PT039H.grib2 2026-05-04 06:20 1.0M
20260504T00Z_MSC_CAPS_SpecificHumidity_IsbL-0175_RLatLon0.03_PT039H.grib2 2026-05-04 06:20 1.0M
20260504T00Z_MSC_CAPS_SpecificHumidity_IsbL-0200_RLatLon0.03_PT039H.grib2 2026-05-04 06:20 916K
20260504T00Z_MSC_CAPS_SpecificHumidity_IsbL-0225_RLatLon0.03_PT039H.grib2 2026-05-04 06:20 1.1M
20260504T00Z_MSC_CAPS_SpecificHumidity_IsbL-0250_RLatLon0.03_PT039H.grib2 2026-05-04 06:20 1.1M
20260504T00Z_MSC_CAPS_SpecificHumidity_IsbL-0275_RLatLon0.03_PT039H.grib2 2026-05-04 06:20 1.1M
20260504T00Z_MSC_CAPS_SpecificHumidity_IsbL-0300_RLatLon0.03_PT039H.grib2 2026-05-04 06:20 1.0M
20260504T00Z_MSC_CAPS_SpecificHumidity_IsbL-0350_RLatLon0.03_PT039H.grib2 2026-05-04 06:20 1.0M
20260504T00Z_MSC_CAPS_SpecificHumidity_IsbL-0400_RLatLon0.03_PT039H.grib2 2026-05-04 06:20 1.3M
20260504T00Z_MSC_CAPS_SpecificHumidity_IsbL-0450_RLatLon0.03_PT039H.grib2 2026-05-04 06:20 1.2M
20260504T00Z_MSC_CAPS_SpecificHumidity_IsbL-0500_RLatLon0.03_PT039H.grib2 2026-05-04 06:20 1.1M
20260504T00Z_MSC_CAPS_SpecificHumidity_IsbL-0550_RLatLon0.03_PT039H.grib2 2026-05-04 06:20 1.3M
20260504T00Z_MSC_CAPS_SpecificHumidity_IsbL-0600_RLatLon0.03_PT039H.grib2 2026-05-04 06:20 1.4M
20260504T00Z_MSC_CAPS_SpecificHumidity_IsbL-0650_RLatLon0.03_PT039H.grib2 2026-05-04 06:20 1.5M
20260504T00Z_MSC_CAPS_SpecificHumidity_IsbL-0700_RLatLon0.03_PT039H.grib2 2026-05-04 06:20 1.3M
20260504T00Z_MSC_CAPS_SpecificHumidity_IsbL-0750_RLatLon0.03_PT039H.grib2 2026-05-04 06:20 1.5M
20260504T00Z_MSC_CAPS_SpecificHumidity_IsbL-0800_RLatLon0.03_PT039H.grib2 2026-05-04 06:20 1.6M
20260504T00Z_MSC_CAPS_SpecificHumidity_IsbL-0850_RLatLon0.03_PT039H.grib2 2026-05-04 06:20 1.8M
20260504T00Z_MSC_CAPS_SpecificHumidity_IsbL-0875_RLatLon0.03_PT039H.grib2 2026-05-04 06:20 1.8M
20260504T00Z_MSC_CAPS_SpecificHumidity_IsbL-0900_RLatLon0.03_PT039H.grib2 2026-05-04 06:20 1.5M
20260504T00Z_MSC_CAPS_SpecificHumidity_IsbL-0925_RLatLon0.03_PT039H.grib2 2026-05-04 06:20 1.5M
20260504T00Z_MSC_CAPS_SpecificHumidity_IsbL-0950_RLatLon0.03_PT039H.grib2 2026-05-04 06:20 1.6M
20260504T00Z_MSC_CAPS_SpecificHumidity_IsbL-0970_RLatLon0.03_PT039H.grib2 2026-05-04 06:20 1.6M
20260504T00Z_MSC_CAPS_SpecificHumidity_IsbL-0985_RLatLon0.03_PT039H.grib2 2026-05-04 06:20 1.7M
20260504T00Z_MSC_CAPS_SpecificHumidity_IsbL-1000_RLatLon0.03_PT039H.grib2 2026-05-04 06:20 1.7M
20260504T00Z_MSC_CAPS_SpecificHumidity_IsbL-1015_RLatLon0.03_PT039H.grib2 2026-05-04 06:20 1.8M
20260504T00Z_MSC_CAPS_SpecificHumidity_Sfc_RLatLon0.03_PT039H.grib2 2026-05-04 06:20 2.0M
20260504T00Z_MSC_CAPS_StormRelativeHelicity_Sfc_RLatLon0.03_PT039H.grib2 2026-05-04 06:20 3.3M
20260504T00Z_MSC_CAPS_Thickness_IsbL-1000to0500_RLatLon0.03_PT039H.grib2 2026-05-04 06:20 434K
20260504T00Z_MSC_CAPS_TotalCloudCover_Sfc_RLatLon0.03_PT039H.grib2 2026-05-04 06:20 3.6M
20260504T00Z_MSC_CAPS_TurboclineDepth_Sfc_RLatLon0.03_PT039H.nc 2026-05-04 06:12 16M
20260504T00Z_MSC_CAPS_UpwardLongwaveRadiationFlux_NTAtm_RLatLon0.03_PT039H.grib2 2026-05-04 06:20 2.9M
20260504T00Z_MSC_CAPS_UpwardShortwaveRadiationFlux_NTAtm_RLatLon0.03_PT039H.grib2 2026-05-04 06:20 2.6M
20260504T00Z_MSC_CAPS_VerticalVelocity_IsbL-0250_RLatLon0.03_PT039H.grib2 2026-05-04 06:20 1.0M
20260504T00Z_MSC_CAPS_VerticalVelocity_IsbL-0500_RLatLon0.03_PT039H.grib2 2026-05-04 06:20 896K
20260504T00Z_MSC_CAPS_VerticalVelocity_IsbL-0700_RLatLon0.03_PT039H.grib2 2026-05-04 06:20 1.0M
20260504T00Z_MSC_CAPS_VerticalVelocity_IsbL-0850_RLatLon0.03_PT039H.grib2 2026-05-04 06:20 1.1M
20260504T00Z_MSC_CAPS_VerticalVelocity_IsbL-1000_RLatLon0.03_PT039H.grib2 2026-05-04 06:20 1.4M
20260504T00Z_MSC_CAPS_WindDir_AGL-10m_RLatLon0.03_PT039H.grib2 2026-05-04 06:20 2.4M
20260504T00Z_MSC_CAPS_WindDir_AGL-120m_RLatLon0.03_PT039H.grib2 2026-05-04 06:20 1.2M
20260504T00Z_MSC_CAPS_WindDir_AGL-40m_RLatLon0.03_PT039H.grib2 2026-05-04 06:20 1.4M
20260504T00Z_MSC_CAPS_WindDir_AGL-80m_RLatLon0.03_PT039H.grib2 2026-05-04 06:20 1.3M
20260504T00Z_MSC_CAPS_WindDir_IsbL-0050_RLatLon0.03_PT039H.grib2 2026-05-04 06:20 1.1M
20260504T00Z_MSC_CAPS_WindDir_IsbL-0100_RLatLon0.03_PT039H.grib2 2026-05-04 06:20 1.0M
20260504T00Z_MSC_CAPS_WindDir_IsbL-0150_RLatLon0.03_PT039H.grib2 2026-05-04 06:20 1.0M
20260504T00Z_MSC_CAPS_WindDir_IsbL-0175_RLatLon0.03_PT039H.grib2 2026-05-04 06:20 1.0M
20260504T00Z_MSC_CAPS_WindDir_IsbL-0200_RLatLon0.03_PT039H.grib2 2026-05-04 06:20 1.1M
20260504T00Z_MSC_CAPS_WindDir_IsbL-0225_RLatLon0.03_PT039H.grib2 2026-05-04 06:20 1.1M
20260504T00Z_MSC_CAPS_WindDir_IsbL-0250_RLatLon0.03_PT039H.grib2 2026-05-04 06:20 1.1M
20260504T00Z_MSC_CAPS_WindDir_IsbL-0275_RLatLon0.03_PT039H.grib2 2026-05-04 06:20 1.1M
20260504T00Z_MSC_CAPS_WindDir_IsbL-0300_RLatLon0.03_PT039H.grib2 2026-05-04 06:20 1.1M
20260504T00Z_MSC_CAPS_WindDir_IsbL-0350_RLatLon0.03_PT039H.grib2 2026-05-04 06:20 1.1M
20260504T00Z_MSC_CAPS_WindDir_IsbL-0400_RLatLon0.03_PT039H.grib2 2026-05-04 06:20 1.1M
20260504T00Z_MSC_CAPS_WindDir_IsbL-0450_RLatLon0.03_PT039H.grib2 2026-05-04 06:20 1.2M
20260504T00Z_MSC_CAPS_WindDir_IsbL-0500_RLatLon0.03_PT039H.grib2 2026-05-04 06:20 1.3M
20260504T00Z_MSC_CAPS_WindDir_IsbL-0550_RLatLon0.03_PT039H.grib2 2026-05-04 06:20 1.3M
20260504T00Z_MSC_CAPS_WindDir_IsbL-0600_RLatLon0.03_PT039H.grib2 2026-05-04 06:20 1.3M
20260504T00Z_MSC_CAPS_WindDir_IsbL-0650_RLatLon0.03_PT039H.grib2 2026-05-04 06:20 1.4M
20260504T00Z_MSC_CAPS_WindDir_IsbL-0700_RLatLon0.03_PT039H.grib2 2026-05-04 06:20 1.5M
20260504T00Z_MSC_CAPS_WindDir_IsbL-0750_RLatLon0.03_PT039H.grib2 2026-05-04 06:20 1.6M
20260504T00Z_MSC_CAPS_WindDir_IsbL-0800_RLatLon0.03_PT039H.grib2 2026-05-04 06:20 1.7M
20260504T00Z_MSC_CAPS_WindDir_IsbL-0850_RLatLon0.03_PT039H.grib2 2026-05-04 06:20 1.8M
20260504T00Z_MSC_CAPS_WindDir_IsbL-0875_RLatLon0.03_PT039H.grib2 2026-05-04 06:20 1.8M
20260504T00Z_MSC_CAPS_WindDir_IsbL-0900_RLatLon0.03_PT039H.grib2 2026-05-04 06:20 1.9M
20260504T00Z_MSC_CAPS_WindDir_IsbL-0925_RLatLon0.03_PT039H.grib2 2026-05-04 06:20 2.0M
20260504T00Z_MSC_CAPS_WindDir_IsbL-0950_RLatLon0.03_PT039H.grib2 2026-05-04 06:20 2.1M
20260504T00Z_MSC_CAPS_WindDir_IsbL-0970_RLatLon0.03_PT039H.grib2 2026-05-04 06:20 2.1M
20260504T00Z_MSC_CAPS_WindDir_IsbL-0985_RLatLon0.03_PT039H.grib2 2026-05-04 06:20 2.2M
20260504T00Z_MSC_CAPS_WindDir_IsbL-1000_RLatLon0.03_PT039H.grib2 2026-05-04 06:20 2.3M
20260504T00Z_MSC_CAPS_WindDir_IsbL-1015_RLatLon0.03_PT039H.grib2 2026-05-04 06:20 2.4M
20260504T00Z_MSC_CAPS_WindGust-Max_AGL-10m_RLatLon0.03_PT039H.grib2 2026-05-04 06:20 2.4M
20260504T00Z_MSC_CAPS_WindGust-Min_AGL-10m_RLatLon0.03_PT039H.grib2 2026-05-04 06:20 2.5M
20260504T00Z_MSC_CAPS_WindGust_AGL-10m_RLatLon0.03_PT039H.grib2 2026-05-04 06:20 2.6M
20260504T00Z_MSC_CAPS_WindSpeed_AGL-10m_RLatLon0.03_PT039H.grib2 2026-05-04 06:20 2.1M
20260504T00Z_MSC_CAPS_WindSpeed_AGL-120m_RLatLon0.03_PT039H.grib2 2026-05-04 06:20 1.2M
20260504T00Z_MSC_CAPS_WindSpeed_AGL-40m_RLatLon0.03_PT039H.grib2 2026-05-04 06:20 1.2M
20260504T00Z_MSC_CAPS_WindSpeed_AGL-80m_RLatLon0.03_PT039H.grib2 2026-05-04 06:20 1.2M
20260504T00Z_MSC_CAPS_WindSpeed_IsbL-0050_RLatLon0.03_PT039H.grib2 2026-05-04 06:20 956K
20260504T00Z_MSC_CAPS_WindSpeed_IsbL-0100_RLatLon0.03_PT039H.grib2 2026-05-04 06:20 1.3M
20260504T00Z_MSC_CAPS_WindSpeed_IsbL-0150_RLatLon0.03_PT039H.grib2 2026-05-04 06:20 1.0M
20260504T00Z_MSC_CAPS_WindSpeed_IsbL-0175_RLatLon0.03_PT039H.grib2 2026-05-04 06:20 1.1M
20260504T00Z_MSC_CAPS_WindSpeed_IsbL-0200_RLatLon0.03_PT039H.grib2 2026-05-04 06:20 1.2M
20260504T00Z_MSC_CAPS_WindSpeed_IsbL-0225_RLatLon0.03_PT039H.grib2 2026-05-04 06:20 954K
20260504T00Z_MSC_CAPS_WindSpeed_IsbL-0250_RLatLon0.03_PT039H.grib2 2026-05-04 06:20 968K
20260504T00Z_MSC_CAPS_WindSpeed_IsbL-0275_RLatLon0.03_PT039H.grib2 2026-05-04 06:20 1.0M
20260504T00Z_MSC_CAPS_WindSpeed_IsbL-0300_RLatLon0.03_PT039H.grib2 2026-05-04 06:20 1.0M
20260504T00Z_MSC_CAPS_WindSpeed_IsbL-0350_RLatLon0.03_PT039H.grib2 2026-05-04 06:20 1.0M
20260504T00Z_MSC_CAPS_WindSpeed_IsbL-0400_RLatLon0.03_PT039H.grib2 2026-05-04 06:20 1.0M
20260504T00Z_MSC_CAPS_WindSpeed_IsbL-0450_RLatLon0.03_PT039H.grib2 2026-05-04 06:20 1.0M
20260504T00Z_MSC_CAPS_WindSpeed_IsbL-0500_RLatLon0.03_PT039H.grib2 2026-05-04 06:20 1.4M
20260504T00Z_MSC_CAPS_WindSpeed_IsbL-0550_RLatLon0.03_PT039H.grib2 2026-05-04 06:20 1.4M
20260504T00Z_MSC_CAPS_WindSpeed_IsbL-0600_RLatLon0.03_PT039H.grib2 2026-05-04 06:20 1.5M
20260504T00Z_MSC_CAPS_WindSpeed_IsbL-0650_RLatLon0.03_PT039H.grib2 2026-05-04 06:20 1.4M
20260504T00Z_MSC_CAPS_WindSpeed_IsbL-0700_RLatLon0.03_PT039H.grib2 2026-05-04 06:20 1.5M
20260504T00Z_MSC_CAPS_WindSpeed_IsbL-0750_RLatLon0.03_PT039H.grib2 2026-05-04 06:20 1.6M
20260504T00Z_MSC_CAPS_WindSpeed_IsbL-0800_RLatLon0.03_PT039H.grib2 2026-05-04 06:20 1.6M
20260504T00Z_MSC_CAPS_WindSpeed_IsbL-0850_RLatLon0.03_PT039H.grib2 2026-05-04 06:20 1.8M
20260504T00Z_MSC_CAPS_WindSpeed_IsbL-0875_RLatLon0.03_PT039H.grib2 2026-05-04 06:20 1.8M
20260504T00Z_MSC_CAPS_WindSpeed_IsbL-0900_RLatLon0.03_PT039H.grib2 2026-05-04 06:20 1.9M
20260504T00Z_MSC_CAPS_WindSpeed_IsbL-0925_RLatLon0.03_PT039H.grib2 2026-05-04 06:20 1.9M
20260504T00Z_MSC_CAPS_WindSpeed_IsbL-0950_RLatLon0.03_PT039H.grib2 2026-05-04 06:20 2.0M
20260504T00Z_MSC_CAPS_WindSpeed_IsbL-0970_RLatLon0.03_PT039H.grib2 2026-05-04 06:20 2.1M
20260504T00Z_MSC_CAPS_WindSpeed_IsbL-0985_RLatLon0.03_PT039H.grib2 2026-05-04 06:20 2.1M
20260504T00Z_MSC_CAPS_WindSpeed_IsbL-1000_RLatLon0.03_PT039H.grib2 2026-05-04 06:20 2.1M
20260504T00Z_MSC_CAPS_WindSpeed_IsbL-1015_RLatLon0.03_PT039H.grib2 2026-05-04 06:20 2.1M
20260504T00Z_MSC_CAPS_WindU_AGL-10m_RLatLon0.03_PT039H.grib2 2026-05-04 06:20 1.9M
20260504T00Z_MSC_CAPS_WindU_AGL-120m_RLatLon0.03_PT039H.grib2 2026-05-04 06:20 934K
20260504T00Z_MSC_CAPS_WindU_AGL-40m_RLatLon0.03_PT039H.grib2 2026-05-04 06:20 1.2M
20260504T00Z_MSC_CAPS_WindU_AGL-80m_RLatLon0.03_PT039H.grib2 2026-05-04 06:20 1.2M
20260504T00Z_MSC_CAPS_WindU_IsbL-0050_RLatLon0.03_PT039H.grib2 2026-05-04 06:20 941K
20260504T00Z_MSC_CAPS_WindU_IsbL-0100_RLatLon0.03_PT039H.grib2 2026-05-04 06:20 967K
20260504T00Z_MSC_CAPS_WindU_IsbL-0150_RLatLon0.03_PT039H.grib2 2026-05-04 06:20 923K
20260504T00Z_MSC_CAPS_WindU_IsbL-0175_RLatLon0.03_PT039H.grib2 2026-05-04 06:20 733K
20260504T00Z_MSC_CAPS_WindU_IsbL-0200_RLatLon0.03_PT039H.grib2 2026-05-04 06:20 883K
20260504T00Z_MSC_CAPS_WindU_IsbL-0225_RLatLon0.03_PT039H.grib2 2026-05-04 06:20 899K
20260504T00Z_MSC_CAPS_WindU_IsbL-0250_RLatLon0.03_PT039H.grib2 2026-05-04 06:20 914K
20260504T00Z_MSC_CAPS_WindU_IsbL-0275_RLatLon0.03_PT039H.grib2 2026-05-04 06:20 921K
20260504T00Z_MSC_CAPS_WindU_IsbL-0300_RLatLon0.03_PT039H.grib2 2026-05-04 06:20 930K
20260504T00Z_MSC_CAPS_WindU_IsbL-0350_RLatLon0.03_PT039H.grib2 2026-05-04 06:20 945K
20260504T00Z_MSC_CAPS_WindU_IsbL-0400_RLatLon0.03_PT039H.grib2 2026-05-04 06:20 956K
20260504T00Z_MSC_CAPS_WindU_IsbL-0450_RLatLon0.03_PT039H.grib2 2026-05-04 06:20 1.0M
20260504T00Z_MSC_CAPS_WindU_IsbL-0500_RLatLon0.03_PT039H.grib2 2026-05-04 06:20 1.0M
20260504T00Z_MSC_CAPS_WindU_IsbL-0550_RLatLon0.03_PT039H.grib2 2026-05-04 06:20 1.0M
20260504T00Z_MSC_CAPS_WindU_IsbL-0600_RLatLon0.03_PT039H.grib2 2026-05-04 06:20 1.0M
20260504T00Z_MSC_CAPS_WindU_IsbL-0650_RLatLon0.03_PT039H.grib2 2026-05-04 06:20 1.1M
20260504T00Z_MSC_CAPS_WindU_IsbL-0700_RLatLon0.03_PT039H.grib2 2026-05-04 06:20 1.1M
20260504T00Z_MSC_CAPS_WindU_IsbL-0750_RLatLon0.03_PT039H.grib2 2026-05-04 06:20 1.2M
20260504T00Z_MSC_CAPS_WindU_IsbL-0800_RLatLon0.03_PT039H.grib2 2026-05-04 06:20 1.2M
20260504T00Z_MSC_CAPS_WindU_IsbL-0850_RLatLon0.03_PT039H.grib2 2026-05-04 06:20 1.2M
20260504T00Z_MSC_CAPS_WindU_IsbL-0875_RLatLon0.03_PT039H.grib2 2026-05-04 06:20 1.3M
20260504T00Z_MSC_CAPS_WindU_IsbL-0900_RLatLon0.03_PT039H.grib2 2026-05-04 06:20 1.3M
20260504T00Z_MSC_CAPS_WindU_IsbL-0925_RLatLon0.03_PT039H.grib2 2026-05-04 06:20 1.4M
20260504T00Z_MSC_CAPS_WindU_IsbL-0950_RLatLon0.03_PT039H.grib2 2026-05-04 06:20 1.4M
20260504T00Z_MSC_CAPS_WindU_IsbL-0970_RLatLon0.03_PT039H.grib2 2026-05-04 06:20 1.8M
20260504T00Z_MSC_CAPS_WindU_IsbL-0985_RLatLon0.03_PT039H.grib2 2026-05-04 06:20 1.8M
20260504T00Z_MSC_CAPS_WindU_IsbL-1000_RLatLon0.03_PT039H.grib2 2026-05-04 06:20 1.9M
20260504T00Z_MSC_CAPS_WindU_IsbL-1015_RLatLon0.03_PT039H.grib2 2026-05-04 06:20 1.9M
20260504T00Z_MSC_CAPS_WindV_AGL-10m_RLatLon0.03_PT039H.grib2 2026-05-04 06:20 1.9M
20260504T00Z_MSC_CAPS_WindV_AGL-120m_RLatLon0.03_PT039H.grib2 2026-05-04 06:20 936K
20260504T00Z_MSC_CAPS_WindV_AGL-40m_RLatLon0.03_PT039H.grib2 2026-05-04 06:20 1.3M
20260504T00Z_MSC_CAPS_WindV_AGL-80m_RLatLon0.03_PT039H.grib2 2026-05-04 06:20 941K
20260504T00Z_MSC_CAPS_WindV_IsbL-0050_RLatLon0.03_PT039H.grib2 2026-05-04 06:20 772K
20260504T00Z_MSC_CAPS_WindV_IsbL-0100_RLatLon0.03_PT039H.grib2 2026-05-04 06:20 798K
20260504T00Z_MSC_CAPS_WindV_IsbL-0150_RLatLon0.03_PT039H.grib2 2026-05-04 06:20 707K
20260504T00Z_MSC_CAPS_WindV_IsbL-0175_RLatLon0.03_PT039H.grib2 2026-05-04 06:20 725K
20260504T00Z_MSC_CAPS_WindV_IsbL-0200_RLatLon0.03_PT039H.grib2 2026-05-04 06:20 873K
20260504T00Z_MSC_CAPS_WindV_IsbL-0225_RLatLon0.03_PT039H.grib2 2026-05-04 06:20 890K
20260504T00Z_MSC_CAPS_WindV_IsbL-0250_RLatLon0.03_PT039H.grib2 2026-05-04 06:20 910K
20260504T00Z_MSC_CAPS_WindV_IsbL-0275_RLatLon0.03_PT039H.grib2 2026-05-04 06:20 917K
20260504T00Z_MSC_CAPS_WindV_IsbL-0300_RLatLon0.03_PT039H.grib2 2026-05-04 06:20 715K
20260504T00Z_MSC_CAPS_WindV_IsbL-0350_RLatLon0.03_PT039H.grib2 2026-05-04 06:20 727K
20260504T00Z_MSC_CAPS_WindV_IsbL-0400_RLatLon0.03_PT039H.grib2 2026-05-04 06:20 950K
20260504T00Z_MSC_CAPS_WindV_IsbL-0450_RLatLon0.03_PT039H.grib2 2026-05-04 06:20 1.0M
20260504T00Z_MSC_CAPS_WindV_IsbL-0500_RLatLon0.03_PT039H.grib2 2026-05-04 06:20 1.0M
20260504T00Z_MSC_CAPS_WindV_IsbL-0550_RLatLon0.03_PT039H.grib2 2026-05-04 06:20 925K
20260504T00Z_MSC_CAPS_WindV_IsbL-0600_RLatLon0.03_PT039H.grib2 2026-05-04 06:20 948K
20260504T00Z_MSC_CAPS_WindV_IsbL-0650_RLatLon0.03_PT039H.grib2 2026-05-04 06:20 1.2M
20260504T00Z_MSC_CAPS_WindV_IsbL-0700_RLatLon0.03_PT039H.grib2 2026-05-04 06:20 1.3M
20260504T00Z_MSC_CAPS_WindV_IsbL-0750_RLatLon0.03_PT039H.grib2 2026-05-04 06:20 1.4M
20260504T00Z_MSC_CAPS_WindV_IsbL-0800_RLatLon0.03_PT039H.grib2 2026-05-04 06:20 1.2M
20260504T00Z_MSC_CAPS_WindV_IsbL-0850_RLatLon0.03_PT039H.grib2 2026-05-04 06:20 1.2M
20260504T00Z_MSC_CAPS_WindV_IsbL-0875_RLatLon0.03_PT039H.grib2 2026-05-04 06:20 1.3M
20260504T00Z_MSC_CAPS_WindV_IsbL-0900_RLatLon0.03_PT039H.grib2 2026-05-04 06:20 1.3M
20260504T00Z_MSC_CAPS_WindV_IsbL-0925_RLatLon0.03_PT039H.grib2 2026-05-04 06:20 1.3M
20260504T00Z_MSC_CAPS_WindV_IsbL-0950_RLatLon0.03_PT039H.grib2 2026-05-04 06:20 1.4M
20260504T00Z_MSC_CAPS_WindV_IsbL-0970_RLatLon0.03_PT039H.grib2 2026-05-04 06:20 1.4M
20260504T00Z_MSC_CAPS_WindV_IsbL-0985_RLatLon0.03_PT039H.grib2 2026-05-04 06:20 1.5M
20260504T00Z_MSC_CAPS_WindV_IsbL-1000_RLatLon0.03_PT039H.grib2 2026-05-04 06:20 1.5M
20260504T00Z_MSC_CAPS_WindV_IsbL-1015_RLatLon0.03_PT039H.grib2 2026-05-04 06:20 1.9M